[[{"header":{"parameterUnit":"m.s-1","parameterCategory":1,"la1":30.2991,"la2":30.254,"lo1":-89.0895,"lo2":-89.0444,"dy":0.0017,"dx":0.0017,"nx":28,"ny":28,"refTime":"2024-11-22T09:00:00:Z","depth":0,"parameterNumber":2,"parameterNumberName":"U-component_of_WINDS"},"data":[0,0,0,0,0,0,0,0,0,0,0,0,0,0,0,0,0,0,0,0,0,0,0,0,0,0,0,0,0,0,0,0,0,0,0,0,0,0,0,0,0,0,0,0,0,0,0,0,0,0,0,0,0,0,0,0,0,0,2.1055,2.1056,0,2.1081,2.1081,2.1081,2.106,2.1059,2.1058,2.1057,2.1083,2.1085,2.1086,0,0,0,0,0,0,0,0,0,0,0,0,0,2.0991,2.0992,2.1055,2.1056,2.1056,2.1081,2.1081,2.1081,2.106,2.1059,2.1058,2.1057,2.1083,2.1085,2.1087,0,0,0,0,0,0,0,0,0,0,0,0,0,2.1018,2.0993,2.1055,2.1048,2.1048,2.1081,2.1081,2.1081,2.106,2.1059,2.1057,2.1056,2.1082,2.1085,2.1087,2.1128,0,0,2.1094,2.1095,0,0,0,0,0,0,0,0,2.1016,2.102,2.1049,2.1049,2.1049,2.1066,2.1068,2.1097,2.106,2.1056,2.1057,2.1056,2.1079,2.1081,2.1089,2.1129,2.113,2.1094,2.1096,2.1096,2.1097,0,0,0,0,0,0,0,2.1014,2.1019,2.1065,2.105,2.1049,2.1045,2.1047,2.1073,2.1074,2.1056,2.1054,2.1058,2.1078,2.1087,2.1089,2.1131,2.1094,2.1096,2.1098,2.1098,2.1208,2.121,0,0,0,0,0,0,2.1013,2.1018,2.1065,2.1066,2.1029,2.1047,2.1049,2.1062,2.1074,2.1075,2.1059,2.1057,2.1083,2.1087,2.109,2.114,2.1096,2.1099,2.11,2.1207,2.1209,2.121,0,0,0,0,0,0,2.1012,2.1018,2.1064,2.1042,2.1047,2.1049,2.1063,2.1063,2.1071,2.1076,2.1076,2.1067,2.1083,2.1087,2.1119,2.1141,2.11,2.1102,2.1205,2.1207,2.1209,2.124,0,0,0,0,0,0,2.101,2.1017,2.1032,2.1042,2.1048,2.1092,2.1064,2.1064,2.1075,2.1072,2.1084,2.1085,2.1082,2.1116,2.1121,2.1143,2.1104,2.1203,2.1206,2.1209,2.1237,2.1243,2.1249,0,0,0,0,0,2.1008,2.1039,2.1033,2.1039,2.1067,2.1093,2.1096,2.1092,2.1077,2.1093,2.1096,2.1084,2.1138,2.1119,2.1125,2.1148,2.1202,2.1205,2.1208,2.1235,2.1242,2.1248,0,0,0,0,0,0,2.1032,2.1041,2.1033,2.1069,2.1081,2.1089,2.1108,2.11,2.1116,2.1113,2.1107,2.111,2.1145,2.115,2.1129,2.119,2.1167,2.1172,2.1185,2.1192,2.1198,2.1196,2.1105,0,0,0,0,0,2.1041,2.1061,2.1068,2.1099,2.1105,2.1106,2.1117,2.1113,2.1125,2.1129,2.1135,2.1147,2.1167,2.118,2.1198,2.1238,2.1241,2.1257,2.1263,2.1267,2.1272,2.1295,2.1303,2.1222,2.1222,2.1221,0,0,2.1061,2.1068,2.1081,2.1104,2.1112,2.1134,2.111,2.1133,2.1149,2.1133,2.1164,2.1169,2.1182,2.1219,2.1235,2.1224,2.1295,2.1272,2.1275,2.1277,2.13,2.1307,2.1314,2.1224,2.1223,2.1223,0,0,2.1108,2.1115,2.1142,2.1151,2.1165,2.1165,2.1172,2.1183,2.1185,2.1216,2.1205,2.1225,2.1258,2.1269,2.1278,2.1332,2.1322,2.1338,2.1367,2.139,2.1397,2.1402,2.1423,2.143,2.1342,2.1342,2.1342,0,2.1131,2.1162,2.1157,2.1182,2.1193,2.118,2.1208,2.1217,2.1236,2.1244,2.1232,2.1275,2.1283,2.1323,2.1336,2.1344,2.1352,2.1337,2.1396,2.1402,2.1407,2.1426,2.1434,2.1344,2.1344,2.1344,2.1344,0,2.119,2.1212,2.1233,2.1252,2.1265,2.1292,2.1292,2.1306,2.1302,2.1305,2.1338,2.1347,2.1368,2.1377,2.1372,2.1417,2.141,2.1397,2.1374,2.1417,2.1435,2.1442,2.1347,2.1346,2.1346,2.1345,0,0,2.1252,2.1269,2.1277,2.1286,2.13,2.1318,2.1345,2.1365,2.1378,2.1392,2.1415,2.1445,2.1434,2.1445,2.1442,2.1462,2.1505,2.1446,2.1447,2.1458,2.1557,2.1567,2.1576,2.1499,2.1501,2.1502,2.1556,0,2.13,2.1346,2.1344,2.1387,2.1409,2.1397,2.1421,2.1433,2.1437,2.1456,2.146,2.1482,2.1464,2.1471,2.1491,2.1496,2.1525,2.1492,2.1522,2.1523,2.1519,2.1585,2.1596,2.1647,2.1563,2.1565,2.1565,0,2.1362,2.1379,2.1425,2.1438,2.1447,2.1468,2.1488,2.1506,2.152,2.1522,2.1535,2.1529,2.1558,2.1534,2.1574,2.1551,2.1564,2.1568,2.157,2.1573,2.1547,2.1591,2.1663,2.1671,2.1576,2.1575,2.1575,0,2.1404,2.1438,2.147,2.1478,2.1494,2.151,2.1517,2.153,2.1543,2.1561,2.1569,2.159,2.1601,2.1618,2.1619,2.1601,2.1659,2.1635,2.1662,2.1662,2.1675,2.1674,2.1751,2.1682,2.1682,2.1682,2.1681,0,2.1459,2.1488,2.149,2.1509,2.1542,2.154,2.1572,2.1578,2.159,2.1612,2.1603,2.1624,2.1623,2.1644,2.1645,2.1679,2.1684,2.1686,2.1686,2.1688,2.1687,2.1696,2.1692,2.1684,2.1683,2.1683,2.1682,0,2.1511,2.1513,2.1548,2.1561,2.1565,2.1588,2.1599,2.1619,2.1622,2.165,2.1657,2.1662,2.1687,2.169,2.1718,2.1719,2.176,2.1756,2.1755,2.1755,2.1782,2.178,2.1867,2.1879,2.1801,2.1802,2.1803,0,2.1546,2.1568,2.1583,2.1597,2.1606,2.1628,2.1642,2.1641,2.1656,2.1675,2.1693,2.1717,2.1736,2.1777,2.1784,2.1807,2.1803,2.1833,2.1807,2.1808,2.1805,2.1804,2.1807,2.1838,2.1838,2.1839,2.184,0,2.1608,2.1609,2.1628,2.165,2.1667,2.1683,2.1699,2.1711,2.1712,2.173,2.1755,2.177,2.18,2.1825,2.1848,2.1856,2.1849,2.1848,2.1855,2.1857,2.1856,2.1858,2.177,2.1846,2.1845,2.1845,2.1844,2.1844,2.1653,2.1673,2.1688,2.1711,2.1723,2.1738,2.1757,2.1764,2.1785,2.181,2.1808,2.1837,2.1852,2.1882,2.1892,2.1916,2.1906,2.1917,2.1919,2.1922,2.1926,2.1853,2.192,2.1919,2.1919,2.1919,2.1919,0,2.1716,2.1725,2.1747,2.1769,2.1788,2.1779,2.1797,2.1813,2.1839,2.1854,2.1873,2.1904,2.1928,2.1938,2.1962,2.1979,2.1977,2.1986,2.1985,2.1987,2.1932,2.1924,2.1987,2.1987,2.1987,2.1987,2.1987,2.1987,2.1751,2.1785,2.1787,2.1827,2.1836,2.1865,2.1875,2.189,2.1902,2.1937,2.1957,2.1963,2.1977,2.2002,2.2025,2.2027,2.2037,2.2048,2.2049,2.1998,2.1991,2.1984,2.1976,2.205,2.205,2.2102,2.2103,2.2103]},{"header":{"parameterUnit":"m.s-1","parameterCategory":1,"la1":30.2991,"la2":30.254,"lo1":-89.0895,"lo2":-89.0444,"dy":0.0017,"dx":0.0017,"nx":28,"ny":28,"refTime":"2024-11-22T09:00:00:Z","depth":0,"parameterNumber":3,"parameterNumberName":"V-component_of_WINDS"},"data":[0,0,0,0,0,0,0,0,0,0,0,0,0,0,0,0,0,0,0,0,0,0,0,0,0,0,0,0,0,0,0,0,0,0,0,0,0,0,0,0,0,0,0,0,0,0,0,0,0,0,0,0,0,0,0,0,0,0,-3.4078,-3.4078,0,-3.4156,-3.4157,-3.4158,-3.4176,-3.4176,-3.4175,-3.4175,-3.4252,-3.4255,-3.4257,0,0,0,0,0,0,0,0,0,0,0,0,0,-3.3943,-3.3945,-3.4077,-3.4078,-3.4079,-3.4156,-3.4157,-3.4158,-3.4177,-3.4176,-3.4175,-3.4175,-3.4251,-3.4254,-3.4257,0,0,0,0,0,0,0,0,0,0,0,0,0,-3.4009,-3.3946,-3.4077,-3.4098,-3.4101,-3.4155,-3.4157,-3.4158,-3.4177,-3.4176,-3.4175,-3.4174,-3.425,-3.4254,-3.4258,-3.4296,0,0,-3.4269,-3.4271,0,0,0,0,0,0,0,0,-3.4005,-3.4014,-3.4094,-3.4097,-3.41,-3.4156,-3.4138,-3.4204,-3.4177,-3.4148,-3.4175,-3.4174,-3.422,-3.4227,-3.4243,-3.43,-3.4303,-3.427,-3.4272,-3.4274,-3.4275,0,0,0,0,0,0,0,-3.4001,-3.4011,-3.4108,-3.4095,-3.4099,-3.4103,-3.4112,-3.415,-3.4187,-3.415,-3.4152,-3.4161,-3.4222,-3.4239,-3.4245,-3.4304,-3.427,-3.4273,-3.4275,-3.4277,-3.4399,-3.44,0,0,0,0,0,0,-3.3993,-3.4007,-3.4106,-3.4111,-3.405,-3.4106,-3.4116,-3.4138,-3.4187,-3.4194,-3.4162,-3.4162,-3.4233,-3.424,-3.4248,-3.4297,-3.4274,-3.4277,-3.4279,-3.4398,-3.4399,-3.44,0,0,0,0,0,0,-3.399,-3.4001,-3.4103,-3.4059,-3.4072,-3.4109,-3.4135,-3.414,-3.4158,-3.4196,-3.4202,-3.4173,-3.4233,-3.4242,-3.4285,-3.43,-3.4279,-3.4282,-3.4397,-3.4398,-3.44,-3.4396,0,0,0,0,0,0,-3.3986,-3.4,-3.4015,-3.4059,-3.4075,-3.4139,-3.4136,-3.4142,-3.4165,-3.4165,-3.4208,-3.4214,-3.4233,-3.4279,-3.4288,-3.4305,-3.4285,-3.4396,-3.4397,-3.4399,-3.4395,-3.4397,-3.4399,0,0,0,0,0,-3.3981,-3.401,-3.4016,-3.4028,-3.4095,-3.414,-3.4148,-3.4171,-3.4166,-3.4181,-3.4206,-3.4213,-3.4297,-3.4283,-3.4294,-3.4312,-3.4395,-3.4397,-3.4399,-3.4394,-3.4396,-3.4399,0,0,0,0,0,0,-3.3965,-3.4016,-3.4023,-3.4068,-3.41,-3.4143,-3.4163,-3.4173,-3.4205,-3.4204,-3.423,-3.4239,-3.428,-3.43,-3.4284,-3.4353,-3.4346,-3.435,-3.4338,-3.4341,-3.4343,-3.4337,-3.4288,0,0,0,0,0,-3.3967,-3.4,-3.4043,-3.4078,-3.4094,-3.4126,-3.4146,-3.4161,-3.4194,-3.4207,-3.4235,-3.4266,-3.43,-3.4322,-3.4355,-3.4398,-3.4408,-3.4416,-3.4418,-3.4419,-3.4422,-3.4448,-3.4452,-3.4407,-3.4407,-3.4407,0,0,-3.3971,-3.4003,-3.4022,-3.4076,-3.4102,-3.4135,-3.4137,-3.4171,-3.4196,-3.4212,-3.4254,-3.4276,-3.4313,-3.4356,-3.4377,-3.4374,-3.4437,-3.4422,-3.4423,-3.4425,-3.4451,-3.4455,-3.4459,-3.4409,-3.4409,-3.4408,0,0,-3.3996,-3.4023,-3.4056,-3.4083,-3.4123,-3.4145,-3.4153,-3.4196,-3.4211,-3.4254,-3.4267,-3.4297,-3.4354,-3.438,-3.4401,-3.4438,-3.4445,-3.4448,-3.4458,-3.4483,-3.4486,-3.449,-3.4503,-3.4508,-3.4451,-3.4451,-3.4451,0,-3.3995,-3.4047,-3.4072,-3.4107,-3.413,-3.4148,-3.4181,-3.4206,-3.4254,-3.427,-3.4267,-3.4341,-3.4366,-3.4417,-3.4426,-3.4442,-3.4452,-3.4443,-3.4484,-3.4488,-3.4491,-3.4504,-3.4509,-3.4451,-3.4451,-3.4451,-3.4451,0,-3.4044,-3.408,-3.4102,-3.415,-3.4176,-3.421,-3.424,-3.4263,-3.4276,-3.4298,-3.4342,-3.4374,-3.4415,-3.4428,-3.444,-3.4481,-3.4478,-3.4479,-3.4473,-3.4495,-3.4508,-3.4513,-3.4451,-3.4451,-3.4451,-3.4451,0,0,-3.406,-3.4123,-3.4131,-3.4154,-3.42,-3.4228,-3.4263,-3.4305,-3.4324,-3.4357,-3.4388,-3.4437,-3.4439,-3.4463,-3.4478,-3.45,-3.4528,-3.4499,-3.45,-3.4503,-3.4575,-3.4574,-3.458,-3.4534,-3.4535,-3.4536,-3.4573,0,-3.409,-3.4154,-3.4179,-3.4231,-3.4265,-3.4283,-3.4314,-3.4346,-3.4368,-3.4399,-3.4423,-3.4458,-3.4457,-3.4472,-3.4494,-3.452,-3.4543,-3.4518,-3.4562,-3.4563,-3.4552,-3.4586,-3.4585,-3.4618,-3.4578,-3.4579,-3.4579,0,-3.4133,-3.4169,-3.4226,-3.427,-3.4285,-3.4312,-3.4353,-3.4383,-3.442,-3.4434,-3.4462,-3.4476,-3.4514,-3.4506,-3.4558,-3.4541,-3.456,-3.4576,-3.4577,-3.4582,-3.4572,-3.4592,-3.4629,-3.4634,-3.4587,-3.4587,-3.4586,0,-3.414,-3.4202,-3.4244,-3.4263,-3.4316,-3.4335,-3.4357,-3.4394,-3.4417,-3.4453,-3.4468,-3.4507,-3.4528,-3.4557,-3.4582,-3.4574,-3.4633,-3.4626,-3.4645,-3.4645,-3.4656,-3.4655,-3.4697,-3.4669,-3.4669,-3.4669,-3.4669,0,-3.4171,-3.4204,-3.4248,-3.4273,-3.4312,-3.434,-3.4378,-3.4401,-3.4434,-3.4465,-3.4482,-3.4511,-3.4542,-3.4574,-3.4594,-3.4635,-3.4644,-3.4656,-3.4661,-3.4655,-3.4653,-3.4668,-3.4666,-3.467,-3.467,-3.467,-3.4669,0,-3.4183,-3.4214,-3.4261,-3.4308,-3.4321,-3.4347,-3.4387,-3.4413,-3.4436,-3.4475,-3.4486,-3.4522,-3.4561,-3.4589,-3.4639,-3.4653,-3.4697,-3.4701,-3.4684,-3.4687,-3.4705,-3.4703,-3.4757,-3.4766,-3.4732,-3.4732,-3.4732,0,-3.4201,-3.4228,-3.4279,-3.4301,-3.4324,-3.436,-3.4385,-3.4414,-3.4439,-3.4485,-3.4505,-3.4546,-3.458,-3.4642,-3.4672,-3.4711,-3.4717,-3.4733,-3.4722,-3.4716,-3.4717,-3.4716,-3.4719,-3.4734,-3.4735,-3.4735,-3.4735,0,-3.423,-3.4244,-3.428,-3.4322,-3.4351,-3.4385,-3.4419,-3.4436,-3.4471,-3.4499,-3.454,-3.4567,-3.4619,-3.4659,-3.4702,-3.4724,-3.4736,-3.4739,-3.4745,-3.4739,-3.4728,-3.4735,-3.4689,-3.4737,-3.4737,-3.4737,-3.4736,-3.4736,-3.4246,-3.4271,-3.4311,-3.4351,-3.438,-3.4412,-3.4439,-3.4467,-3.4502,-3.4548,-3.4563,-3.4606,-3.4643,-3.4701,-3.4725,-3.4759,-3.4758,-3.4767,-3.477,-3.4771,-3.4771,-3.4723,-3.4766,-3.4766,-3.4766,-3.4766,-3.4766,0,-3.4276,-3.4303,-3.4339,-3.4387,-3.4419,-3.4429,-3.4467,-3.4493,-3.4531,-3.4565,-3.4599,-3.4647,-3.4687,-3.4722,-3.4763,-3.4784,-3.479,-3.4793,-3.4792,-3.4797,-3.477,-3.476,-3.4788,-3.4788,-3.4788,-3.4788,-3.4788,-3.4788,-3.4295,-3.4338,-3.4358,-3.4416,-3.4443,-3.4487,-3.4508,-3.4538,-3.4566,-3.4619,-3.4653,-3.4676,-3.4711,-3.4755,-3.4792,-3.4801,-3.4816,-3.4818,-3.4828,-3.4802,-3.4799,-3.4797,-3.4788,-3.4821,-3.4821,-3.4853,-3.4854,-3.4854]}]]